| time (UTC) | temp C | wind direction | speed KPH | gust KPH | rain 1hr cm | rain 24hr cm | rain mn cm | humidity % | barometer mb |
| 20260504080701 | 10 | 212 | 4.8 | 4.8 | 0.00 | 0.00 | 0.00 | 56 | 1004.8 |
| 20260504080158 | 10 | 195 | 4.8 | 4.8 | 0.00 | 0.00 | 0.00 | 57 | 1005.0 |
| 20260504070126 | 11 | 211 | 3.2 | 3.2 | 0.00 | 0.00 | 0.00 | 54 | 1005.6 |
| 20260504050514 | 12 | 203 | 3.2 | 3.2 | 0.00 | 0.00 | 0.00 | 49 | 1006.9 |
| 20260504050012 | 12 | 205 | 1.6 | 3.2 | 0.00 | 0.00 | 0.00 | 48 | 1007.0 |
| 20260504045508 | 12 | 209 | 1.6 | 1.6 | 0.00 | 0.00 | 0.00 | 48 | 1007.0 |
| 20260504045003 | 12 | 210 | 1.6 | 1.6 | 0.00 | 0.00 | 0.00 | 47 | 1007.3 |
| 20260504044501 | 12 | 207 | 3.2 | 3.2 | 0.00 | 0.00 | 0.00 | 47 | 1007.1 |
| 20260504043958 | 13 | 204 | 1.6 | 1.6 | 0.00 | 0.00 | 0.00 | 47 | 1007.1 |
| 20260504043455 | 13 | 209 | 0.0 | 1.6 | 0.00 | 0.00 | 0.00 | 47 | 1007.2 |
| 20260504042952 | 13 | 214 | 0.0 | 1.6 | 0.00 | 0.00 | 0.00 | 47 | 1007.2 |
| 20260504042449 | 13 | 207 | 1.6 | 1.6 | 0.00 | 0.00 | 0.00 | 47 | 1007.3 |
| 20260504041946 | 13 | 194 | 3.2 | 3.2 | 0.00 | 0.00 | 0.00 | 46 | 1007.2 |
| 20260504041442 | 13 | 209 | 3.2 | 3.2 | 0.00 | 0.00 | 0.00 | 45 | 1007.4 |
| 20260504040937 | 13 | 214 | 1.6 | 1.6 | 0.00 | 0.00 | 0.00 | 45 | 1007.5 |
| 20260504040436 | 13 | 213 | 1.6 | 1.6 | 0.00 | 0.00 | 0.00 | 44 | 1007.5 |
| 20260504035931 | 13 | 214 | 1.6 | 1.6 | 0.00 | 0.00 | 0.00 | 44 | 1007.3 |
| 20260504035429 | 13 | 214 | 1.6 | 1.6 | 0.00 | 0.00 | 0.00 | 44 | 1007.6 |
| 20260504034926 | 13 | 214 | 1.6 | 1.6 | 0.00 | 0.00 | 0.00 | 44 | 1007.6 |
| 20260504034423 | 13 | 213 | 1.6 | 1.6 | 0.00 | 0.00 | 0.00 | 44 | 1007.8 |
| 20260504033920 | 13 | 209 | 1.6 | 1.6 | 0.00 | 0.00 | 0.00 | 44 | 1007.7 |
| 20260504033418 | 14 | 207 | 1.6 | 1.6 | 0.00 | 0.00 | 0.00 | 44 | 1007.9 |
| 20260504032915 | 14 | 203 | 3.2 | 3.2 | 0.00 | 0.00 | 0.00 | 43 | 1007.9 |
| 20260504032411 | 14 | 205 | 1.6 | 1.6 | 0.00 | 0.00 | 0.00 | 43 | 1008.0 |
| 20260504031908 | 15 | 207 | 0.0 | 0.0 | 0.00 | 0.00 | 0.00 | 44 | 1007.9 |
| 20260504031405 | 15 | 206 | 0.0 | 1.6 | 0.00 | 0.00 | 0.00 | 43 | 1008.4 |
| 20260504030902 | 15 | 219 | 0.0 | 0.0 | 0.00 | 0.00 | 0.00 | 44 | 1008.1 |
| 20260504030359 | 15 | 233 | 0.0 | 0.0 | 0.00 | 0.00 | 0.00 | 43 | 1008.1 |
| 20260504025855 | 15 | 233 | 0.0 | 0.0 | 0.00 | 0.00 | 0.00 | 42 | 1008.3 |
| 20260504025352 | 15 | 233 | 0.0 | 1.6 | 0.00 | 0.00 | 0.00 | 41 | 1008.0 |
| 20260504024849 | 16 | 233 | 0.0 | 0.0 | 0.00 | 0.00 | 0.00 | 40 | 1008.3 |
| 20260504024345 | 16 | 229 | 0.0 | 1.6 | 0.00 | 0.00 | 0.00 | 39 | 1008.0 |
| 20260504023842 | 16 | 235 | 1.6 | 1.6 | 0.00 | 0.00 | 0.00 | 39 | 1008.5 |
| 20260504023339 | 16 | 225 | 1.6 | 1.6 | 0.00 | 0.00 | 0.00 | 40 | 1007.9 |
| 20260504022834 | 16 | 229 | 1.6 | 1.6 | 0.00 | 0.00 | 0.00 | 39 | 1008.3 |
| 20260504022332 | 16 | 244 | 0.0 | 0.0 | 0.00 | 0.00 | 0.00 | 38 | 1008.1 |
| 20260504021828 | 17 | 255 | 1.6 | 3.2 | 0.00 | 0.00 | 0.00 | 36 | 1007.8 |
| 20260504021326 | 17 | 230 | 4.8 | 4.8 | 0.00 | 0.00 | 0.00 | 36 | 1008.1 |
| 20260504020823 | 17 | 244 | 1.6 | 3.2 | 0.00 | 0.00 | 0.00 | 36 | 1008.1 |
| 20260504020319 | 17 | 247 | 0.0 | 0.0 | 0.00 | 0.00 | 0.00 | 35 | 1008.0 |
| 20260504015815 | 17 | 246 | 0.0 | 1.6 | 0.00 | 0.00 | 0.00 | 35 | 1008.1 |
| 20260504015311 | 17 | 243 | 1.6 | 1.6 | 0.00 | 0.00 | 0.00 | 35 | 1008.1 |
| 20260504014808 | 17 | 244 | 1.6 | 1.6 | 0.00 | 0.00 | 0.00 | 35 | 1008.0 |
| 20260504014304 | 17 | 243 | 0.0 | 0.0 | 0.00 | 0.00 | 0.00 | 35 | 1008.0 |
| 20260504013802 | 18 | 249 | 0.0 | 0.0 | 0.00 | 0.00 | 0.00 | 35 | 1008.3 |
| 20260504013259 | 18 | 242 | 0.0 | 0.0 | 0.00 | 0.00 | 0.00 | 34 | 1008.0 |
| 20260504012755 | 18 | 243 | 1.6 | 1.6 | 0.00 | 0.00 | 0.00 | 34 | 1007.9 |
| 20260504012254 | 18 | 260 | 0.0 | 0.0 | 0.00 | 0.00 | 0.00 | 33 | 1007.8 |
| 20260504011750 | 18 | 265 | 0.0 | 0.0 | 0.00 | 0.00 | 0.00 | 33 | 1007.8 |
| 20260504011247 | 19 | 279 | 1.6 | 1.6 | 0.00 | 0.00 | 0.00 | 33 | 1008.0 |
| 20260504010743 | 19 | 260 | 0.0 | 1.6 | 0.00 | 0.00 | 0.00 | 33 | 1007.8 |
| 20260504010238 | 19 | 292 | 1.6 | 1.6 | 0.00 | 0.00 | 0.00 | 33 | 1007.7 |
| 20260504005736 | 20 | 269 | 0.0 | 1.6 | 0.00 | 0.00 | 0.00 | 32 | 1007.5 |
| 20260504005233 | 20 | 256 | 0.0 | 0.0 | 0.00 | 0.00 | 0.00 | 32 | 1007.5 |
| 20260504004730 | 20 | 286 | 1.6 | 3.2 | 0.00 | 0.00 | 0.00 | 31 | 1007.7 |
| 20260504004227 | 20 | 254 | 3.2 | 3.2 | 0.00 | 0.00 | 0.00 | 30 | 1007.5 |
| 20260504003724 | 20 | 264 | 1.6 | 1.6 | 0.00 | 0.00 | 0.00 | 30 | 1007.7 |
| 20260504003221 | 21 | 1 | 1.6 | 1.6 | 0.00 | 0.00 | 0.00 | 29 | 1007.7 |
| 20260504002717 | 21 | 328 | 6.4 | 8.0 | 0.00 | 0.00 | 0.00 | 28 | 1007.7 |
| 20260504002214 | 21 | 260 | 1.6 | 1.6 | 0.00 | 0.00 | 0.00 | 29 | 1007.7 |
| 20260504001712 | 21 | 269 | 4.8 | 4.8 | 0.00 | 0.00 | 0.00 | 28 | 1007.8 |
| 20260504001209 | 21 | 285 | 4.8 | 4.8 | 0.00 | 0.00 | 0.00 | 29 | 1007.7 |
| 20260504000706 | 21 | 287 | 4.8 | 4.8 | 0.00 | 0.00 | 0.00 | 28 | 1007.8 |
| 20260504000204 | 21 | 294 | 3.2 | 3.2 | 0.00 | 0.00 | 0.00 | 29 | 1007.6 |
| 20260503235701 | 21 | 332 | 4.8 | 4.8 | 0.00 | 0.00 | 0.00 | 30 | 1007.6 |
| 20260503235157 | 21 | 312 | 3.2 | 3.2 | 0.00 | 0.00 | 0.00 | 28 | 1007.6 |
| 20260503234655 | 22 | 280 | 3.2 | 3.2 | 0.00 | 0.00 | 0.00 | 29 | 1007.6 |
| 20260503234154 | 22 | 216 | 1.6 | 3.2 | 0.00 | 0.00 | 0.00 | 28 | 1007.4 |
| 20260503233650 | 22 | 318 | 3.2 | 4.8 | 0.00 | 0.00 | 0.00 | 27 | 1007.7 |
| 20260503233146 | 22 | 326 | 4.8 | 4.8 | 0.00 | 0.00 | 0.00 | 29 | 1007.7 |
| 20260503232643 | 22 | 316 | 3.2 | 3.2 | 0.00 | 0.00 | 0.00 | 28 | 1007.6 |
| 20260503232140 | 22 | 333 | 6.4 | 9.7 | 0.00 | 0.00 | 0.00 | 28 | 1007.7 |
| 20260503231638 | 22 | 342 | 3.2 | 8.0 | 0.00 | 0.00 | 0.00 | 27 | 1007.8 |
| 20260503231134 | 22 | 327 | 9.7 | 11.3 | 0.00 | 0.00 | 0.00 | 28 | 1007.6 |
| 20260503230631 | 22 | 348 | 6.4 | 9.7 | 0.00 | 0.00 | 0.00 | 27 | 1007.6 |
| 20260503230128 | 22 | 278 | 4.8 | 4.8 | 0.00 | 0.00 | 0.00 | 30 | 1007.6 |
| 20260503225626 | 22 | 272 | 3.2 | 3.2 | 0.00 | 0.00 | 0.00 | 30 | 1007.8 |
| 20260503225125 | 22 | 320 | 6.4 | 8.0 | 0.00 | 0.00 | 0.00 | 29 | 1007.7 |
| 20260503224623 | 22 | 315 | 6.4 | 8.0 | 0.00 | 0.00 | 0.00 | 29 | 1007.7 |
| 20260503224121 | 22 | 246 | 1.6 | 3.2 | 0.00 | 0.00 | 0.00 | 31 | 1007.7 |
| 20260503223619 | 22 | 343 | 4.8 | 4.8 | 0.00 | 0.00 | 0.00 | 30 | 1007.5 |
| 20260503223114 | 22 | 348 | 8.0 | 9.7 | 0.00 | 0.00 | 0.00 | 29 | 1007.8 |
| 20260503222612 | 22 | 267 | 3.2 | 3.2 | 0.00 | 0.00 | 0.00 | 30 | 1007.5 |
| 20260503222109 | 22 | 314 | 3.2 | 4.8 | 0.00 | 0.00 | 0.00 | 29 | 1007.5 |
| 20260503221608 | 22 | 326 | 11.3 | 12.9 | 0.00 | 0.00 | 0.00 | 30 | 1007.6 |
| 20260503221105 | 23 | 271 | 1.6 | 3.2 | 0.00 | 0.00 | 0.00 | 28 | 1007.5 |
| 20260503220601 | 23 | 260 | 9.7 | 14.5 | 0.00 | 0.00 | 0.00 | 27 | 1007.6 |
| 20260503220058 | 22 | 344 | 6.4 | 9.7 | 0.00 | 0.00 | 0.00 | 27 | 1007.8 |
| 20260503215555 | 22 | 300 | 6.4 | 8.0 | 0.00 | 0.00 | 0.00 | 28 | 1007.6 |
| 20260503215052 | 22 | 10 | 4.8 | 8.0 | 0.00 | 0.00 | 0.00 | 29 | 1007.7 |
| 20260503214550 | 22 | 316 | 4.8 | 4.8 | 0.00 | 0.00 | 0.00 | 28 | 1007.7 |
| 20260503214046 | 23 | 276 | 8.0 | 9.7 | 0.00 | 0.00 | 0.00 | 26 | 1007.7 |
| 20260503213545 | 22 | 318 | 6.4 | 8.0 | 0.00 | 0.00 | 0.00 | 28 | 1007.7 |
| 20260503213041 | 22 | 344 | 9.7 | 14.5 | 0.00 | 0.00 | 0.00 | 28 | 1007.5 |
| 20260503212539 | 22 | 320 | 4.8 | 8.0 | 0.00 | 0.00 | 0.00 | 27 | 1007.6 |
| 20260503212036 | 22 | 343 | 9.7 | 12.9 | 0.00 | 0.00 | 0.00 | 26 | 1007.6 |
| 20260503211533 | 22 | 315 | 9.7 | 11.3 | 0.00 | 0.00 | 0.00 | 27 | 1007.7 |
| 20260503211028 | 22 | 346 | 9.7 | 12.9 | 0.00 | 0.00 | 0.00 | 27 | 1007.8 |
| 20260503210526 | 22 | 349 | 6.4 | 9.7 | 0.00 | 0.00 | 0.00 | 27 | 1007.7 |
| 20260503210021 | 22 | 311 | 11.3 | 17.7 | 0.00 | 0.00 | 0.00 | 27 | 1007.8 |
| 20260503205518 | 22 | 269 | 4.8 | 8.0 | 0.00 | 0.00 | 0.00 | 26 | 1007.5 |
| 20260503205015 | 22 | 289 | 3.2 | 3.2 | 0.00 | 0.00 | 0.00 | 27 | 1007.9 |
| 20260503204512 | 22 | 335 | 8.0 | 9.7 | 0.00 | 0.00 | 0.00 | 28 | 1007.8 |
| 20260503204008 | 22 | 16 | 8.0 | 9.7 | 0.00 | 0.00 | 0.00 | 30 | 1008.0 |
| 20260503203506 | 22 | 358 | 8.0 | 9.7 | 0.00 | 0.00 | 0.00 | 30 | 1008.0 |
| 20260503203003 | 22 | 270 | 9.7 | 14.5 | 0.00 | 0.00 | 0.00 | 29 | 1007.5 |
| 20260503202500 | 22 | 302 | 4.8 | 8.0 | 0.00 | 0.00 | 0.00 | 28 | 1008.3 |
| 20260503201959 | 22 | 356 | 8.0 | 9.7 | 0.00 | 0.00 | 0.00 | 29 | 1008.0 |
| 20260503201456 | 22 | 318 | 6.4 | 9.7 | 0.00 | 0.00 | 0.00 | 29 | 1007.9 |
| 20260503200953 | 22 | 339 | 14.5 | 16.1 | 0.00 | 0.00 | 0.00 | 27 | 1007.9 |
| 20260503200449 | 22 | 302 | 9.7 | 12.9 | 0.00 | 0.00 | 0.00 | 31 | 1008.1 |
| 20260503195946 | 22 | 308 | 9.7 | 11.3 | 0.00 | 0.00 | 0.00 | 31 | 1007.9 |
| 20260503195444 | 22 | 353 | 16.1 | 20.9 | 0.00 | 0.00 | 0.00 | 32 | 1007.9 |
| 20260503194940 | 22 | 323 | 9.7 | 11.3 | 0.00 | 0.00 | 0.00 | 33 | 1008.1 |
| 20260503194437 | 22 | 287 | 6.4 | 8.0 | 0.00 | 0.00 | 0.00 | 33 | 1008.4 |
| 20260503193932 | 22 | 329 | 9.7 | 11.3 | 0.00 | 0.00 | 0.00 | 33 | 1008.1 |
| 20260503193428 | 21 | 7 | 12.9 | 17.7 | 0.00 | 0.00 | 0.00 | 33 | 1008.0 |
| 20260503192923 | 21 | 333 | 8.0 | 9.7 | 0.00 | 0.00 | 0.00 | 32 | 1008.1 |
| 20260503192421 | 21 | 320 | 9.7 | 12.9 | 0.00 | 0.00 | 0.00 | 33 | 1008.4 |
| 20260503191916 | 21 | 348 | 9.7 | 11.3 | 0.00 | 0.00 | 0.00 | 32 | 1008.0 |
| 20260503191414 | 21 | 35 | 12.9 | 16.1 | 0.00 | 0.00 | 0.00 | 33 | 1008.1 |
| 20260503190910 | 21 | 301 | 9.7 | 14.5 | 0.00 | 0.00 | 0.00 | 35 | 1008.0 |
| 20260503190408 | 21 | 328 | 9.7 | 9.7 | 0.00 | 0.00 | 0.00 | 34 | 1008.5 |
| 20260503185904 | 21 | 298 | 4.8 | 9.7 | 0.00 | 0.00 | 0.00 | 35 | 1008.3 |
| 20260503185401 | 21 | 335 | 17.7 | 22.5 | 0.00 | 0.00 | 0.00 | 33 | 1008.1 |
| 20260503184900 | 22 | 314 | 6.4 | 9.7 | 0.00 | 0.00 | 0.00 | 34 | 1008.4 |
| 20260503184356 | 21 | 329 | 9.7 | 11.3 | 0.00 | 0.00 | 0.00 | 36 | 1008.3 |
| 20260503183853 | 21 | 352 | 16.1 | 17.7 | 0.00 | 0.00 | 0.00 | 34 | 1008.4 |
| 20260503183350 | 21 | 357 | 9.7 | 14.5 | 0.00 | 0.00 | 0.00 | 37 | 1008.1 |
| 20260503182847 | 21 | 334 | 6.4 | 9.7 | 0.00 | 0.00 | 0.00 | 36 | 1008.1 |
| 20260503182346 | 21 | 314 | 8.0 | 8.0 | 0.00 | 0.00 | 0.00 | 37 | 1008.3 |
| 20260503181842 | 21 | 333 | 8.0 | 11.3 | 0.00 | 0.00 | 0.00 | 38 | 1008.1 |
| 20260503181340 | 21 | 303 | 16.1 | 22.5 | 0.00 | 0.00 | 0.00 | 36 | 1008.1 |
| 20260503180836 | 21 | 301 | 8.0 | 11.3 | 0.00 | 0.00 | 0.00 | 39 | 1008.0 |
| 20260503180334 | 21 | 293 | 12.9 | 16.1 | 0.00 | 0.00 | 0.00 | 38 | 1008.6 |
| 20260503175830 | 21 | 311 | 9.7 | 12.9 | 0.00 | 0.00 | 0.00 | 37 | 1008.4 |
| 20260503175328 | 21 | 311 | 6.4 | 9.7 | 0.00 | 0.00 | 0.00 | 39 | 1008.6 |
| 20260503174823 | 21 | 312 | 12.9 | 17.7 | 0.00 | 0.00 | 0.00 | 38 | 1008.3 |
| 20260503174322 | 21 | 11 | 6.4 | 8.0 | 0.00 | 0.00 | 0.00 | 39 | 1008.4 |
| 20260503173817 | 20 | 53 | 11.3 | 12.9 | 0.00 | 0.00 | 0.00 | 38 | 1008.5 |
| 20260503173314 | 21 | 302 | 9.7 | 11.3 | 0.00 | 0.00 | 0.00 | 39 | 1008.6 |
| 20260503172810 | 20 | 294 | 6.4 | 9.7 | 0.00 | 0.00 | 0.00 | 39 | 1008.3 |
| 20260503172308 | 21 | 0 | 6.4 | 9.7 | 0.00 | 0.00 | 0.00 | 39 | 1008.4 |
| 20260503171804 | 21 | 192 | 4.8 | 4.8 | 0.00 | 0.00 | 0.00 | 40 | 1008.4 |
| 20260503171301 | 21 | 278 | 6.4 | 8.0 | 0.00 | 0.00 | 0.00 | 39 | 1008.4 |
| 20260503170758 | 20 | 339 | 11.3 | 12.9 | 0.00 | 0.00 | 0.00 | 38 | 1008.3 |
| 20260503170255 | 20 | 291 | 4.8 | 4.8 | 0.00 | 0.00 | 0.00 | 40 | 1008.5 |
| 20260503160217 | 18 | 319 | 3.2 | 3.2 | 0.00 | 0.00 | 0.00 | 43 | 1008.5 |
| 20260503150647 | 16 | 226 | 14.5 | 17.7 | 0.00 | 0.00 | 0.00 | 47 | 1008.9 |
| 20260503150143 | 16 | 281 | 4.8 | 4.8 | 0.00 | 0.00 | 0.00 | 47 | 1008.8 |
| 20260503140108 | 13 | 212 | 8.0 | 9.7 | 0.00 | 0.00 | 0.00 | 54 | 1009.3 |
| 20260503131037 | 11 | 198 | 9.7 | 9.7 | 0.00 | 0.00 | 0.00 | 55 | 1009.7 |
| 20260503130534 | 11 | 206 | 9.7 | 12.9 | 0.00 | 0.00 | 0.00 | 56 | 1009.8 |
| 20260503110425 | 10 | 175 | 4.8 | 8.0 | 0.00 | 0.00 | 0.00 | 57 | 1010.2 |
| 20260503090315 | 11 | 166 | 8.0 | 8.0 | 0.00 | 0.00 | 0.00 | 51 | 1011.9 |
| 20260503081243 | 11 | 175 | 8.0 | 9.7 | 0.00 | 0.00 | 0.00 | 50 | 1013.7 |